Tracking 19224 objects as of 22-Jul-2018
HD Live streaming from Space Station
objects crossing your sky now

FENGYUN 1C DEB

Track FENGYUN 1C DEB now!
10-day predictions


NORAD ID: 36733
Int'l Code: 1999-025EBF
Perigee: 814.3 km
Apogee: 1,041.7 km
Inclination: 99.2 °
Period: 103.4 minutes
Semi major axis: 7298 km
RCS: 0.0043 m2 (small)
Launch date: May 10, 1999
Source: People's Republic of China (PRC)
Launch site: Taiyaun Space Center, China (TSC)

Note: This is SATELLITE DEBRIS
aabbcc
Your satellite tracking list
Your tracking list is empty




NASA's NSSDC Master Catalog

Two Line Element Set (TLE):
1 36733U 99025EBF 18202.28278343  .00000356  00000-0  28390-3 0  9996
2 36733  99.1878 135.4571 0155768 297.2959  61.2412 13.92224848448855
Source of the keplerian elements: AFSPC